Dryden, TX

11:00 AM CST on February 23, 2017 (GMT -0600)
Dryden

Weather History for K6R6 - May, 2013

Change the Weather History Date:

Thursday, May 23, 2013

  Actual Average (KFST) Record (KFST)
Temperature  
Mean Temperature 85 °F -  
Max Temperature 95 °F 90 °F 104 °F (2000)
Min Temperature 75 °F 63 °F 59 °F (2001)
Cooling Degree Days 20    
Growing Degree Days 35 (Base 50)    
Moisture  
Dew Point 66 °F    
Average Humidity 58    
Maximum Humidity 82    
Minimum Humidity 36    
Precipitation  
Precipitation 0.00 in - - ()
Sea Level Pressure  
Sea Level Pressure 29.78 in    
Wind  
Wind Speed 15 mph (ESE)    
Max Wind Speed 23 mph    
Max Gust Speed 34 mph    
Averages and records for this station are not official NWS values.
T = Trace of Precipitation, MM = Missing Value Source: NWS Daily Summary

Daily Weather History Graph

Daily Weather History Graph

Search for Another Location

Airport or City:

Trip Planner

Search our weather history database for the weather conditions in past years. The results will help you decide how hot, cold, wet, or windy it might be!

Date:

Astronomy

May. 23, 2013 Rise Set
Actual Time 6:50 AM CDT 8:40 PM CDT
Civil Twilight 6:24 AM CDT 9:07 PM CDT
Nautical Twilight 5:52 AM CDT 9:39 PM CDT
Astronomical Twilight 5:18 AM CDT 10:13 PM CDT
Moon 7:20 PM CDT 5:30 AM CDT
Length of Visible Light 14h 42m
Length of Day
13h 49m
Waxing Gibbous, 97% of the Moon is Illuminated
May 23
Waxing Gibbous
May 24
Full
May 31
Last Quarter
Jun 8
New
Jun 16
First Quarter

Hourly Weather History & Observations

Time (CDT) Temp. Heat Index Dew Point Humidity Pressure Visibility Wind Dir Wind Speed Gust Speed Precip Events Conditions
12:53 AM 82.9 °F 84.6 °F 64.9 °F 54% 29.73 in - ESE 18.4 mph 26.5 mph N/A   Unknown
1:53 AM 81.0 °F 83.3 °F 66.9 °F 62% 29.73 in - ESE 18.4 mph 25.3 mph N/A   Unknown
2:53 AM 79.0 °F - 66.9 °F 66% 29.72 in - East 11.5 mph - N/A   Unknown
3:53 AM 78.1 °F - 66.9 °F 68% 29.73 in - East 10.4 mph - N/A   Unknown
4:53 AM 75.9 °F - 68.0 °F 76% 29.74 in - East 8.1 mph - N/A   Unknown
5:53 AM 75.9 °F - 68.0 °F 76% 29.76 in - East 4.6 mph - N/A   Unknown
6:53 AM 75.9 °F - 70.0 °F 82% 29.78 in - ESE 8.1 mph - N/A   Unknown
7:53 AM 75.9 °F - 70.0 °F 82% 29.81 in - ESE 11.5 mph 17.3 mph N/A   Unknown
8:53 AM 77.0 °F - 70.0 °F 79% 29.83 in - SE 10.4 mph - N/A   Unknown
9:53 AM 81.0 °F 84.4 °F 70.0 °F 69% 29.83 in - ESE 11.5 mph - N/A   Unknown
10:53 AM 84.9 °F 88.8 °F 69.1 °F 59% 29.82 in - ESE 11.5 mph - N/A   Unknown
11:53 AM 89.1 °F 91.3 °F 66.0 °F 46% 29.81 in - SE 15.0 mph - N/A   Unknown
12:53 PM 91.9 °F 95.4 °F 66.9 °F 44% 29.80 in - SE 13.8 mph 24.2 mph N/A   Unknown
1:53 PM 93.9 °F 97.0 °F 66.0 °F 40% 29.78 in - ESE 17.3 mph 23.0 mph N/A   Unknown
2:53 PM 93.0 °F 96.4 °F 66.9 °F 42% 29.75 in - ESE 21.9 mph 28.8 mph N/A   Unknown
3:53 PM 95.0 °F 97.0 °F 64.0 °F 36% 29.71 in - East 18.4 mph 26.5 mph N/A   Unknown
4:53 PM 93.0 °F 94.6 °F 64.0 °F 38% 29.70 in - ESE 23.0 mph 29.9 mph N/A   Unknown
5:53 PM 89.1 °F 90.3 °F 64.0 °F 43% 29.72 in - ESE 23.0 mph 34.5 mph N/A   Unknown
6:53 PM 87.1 °F 87.8 °F 63.0 °F 44% 29.73 in - ESE 19.6 mph 32.2 mph N/A   Unknown
7:53 PM 87.1 °F 87.8 °F 63.0 °F 44% 29.76 in - North - - N/A   Unknown
8:53 PM 81.0 °F 81.9 °F 62.1 °F 52% 29.87 in - North - - N/A   Unknown
9:53 PM 78.1 °F - 64.9 °F 64% 29.85 in - North - - N/A   Unknown
10:53 PM 78.1 °F - 60.1 °F 54% 29.89 in - North - - N/A   Unknown
11:53 PM 75.0 °F - 62.1 °F 64% 29.90 in - North - - N/A   Unknown